Location: Bois de la Silve
(44.4667°N, 6.7833°E)
Time: 08:19:55
(UTC+00:00)

Landsat 4 - Pass Details

Date: 14 July 2020
Orbit: 506 x 522 km, 98.2° (Epoch: 14 August)

Event Time Altitude Azimuth Distance (km) Brightness Sun altitude
Rises 00:05:08 0° 8° (N) 2,659 8.8 -23.6°
Reaches altitude 10° 00:07:16 10° 3° (N) 1,767 7.5 -23.6°
Enters shadow 00:10:47 51° 299° (WNW) 667 4.3 -23.5°
